Home > Weather > Bend > Past weeks

Flag for U.S.A. Weather for the Past 2 Weeks in Bend, Oregon, U.S.A.

Now
30 °F

Clear.


Feels Like: 26 °F
Forecast: 35 / 57 °F
Wind: 3 mph from Southeast

Location: Roberts Field Airport

Current Time: Feb 7, 2016 at 5:07:34 AM

Latest Report: Feb 7, 2016 at 3:56 AM


Visibility: 10 mi

Pressure: 30.50 "Hg (26.55 "Hg at 1103m altitude)

Humidity: 89%

Dew point: 27 °F

Location of BendLocation

Historic Weather in Bend — Graph

°F

Bend Temperature Yesterday

Maximum temperature yesterday: 53 °F (at 2:56 PM)
Minimum temperature yesterday: 30 °F (at 4:56 AM)
Average temperature yesterday: 40 °F

High & Low Weather Summary for the Past Weeks

 TemperatureHumidityPressure
High57 °F (Jan 27, 1:56 PM)93% (Jan 30, 6:56 AM)30.50 "Hg (Jan 30, 6:56 AM)
Low20 °F (Jan 31, 2:56 AM)37% (Jan 27, 1:56 PM)29.70 "Hg (Jan 29, 7:56 AM)
Average37 °F70%30.16 "Hg
* Reported Jan 23 3:56 AM — Feb 7 3:56 AM, Bend, Weather by CustomWeather, © 2016

Note: Actual official high and low records may vary slightly from our data, if they occured in-between our weather recording intervals... More about our weather records

Advertising

Bend Weather History for the Previous 24 Hours

 ConditionsComfort  
Time TempWeatherWind HumidityBarometerVisibility
3:56 AM
Sun, Feb 7
30 °FClear.3 mph89%30.50 "Hg10 mi
2:56 AM31 °FClear.No wind89%30.48 "Hg10 mi
1:56 AM32 °FClear.3 mph88%30.47 "Hg10 mi
12:56 AM31 °FClear.5 mph89%30.47 "Hg10 mi
11:56 PM
Sat, Feb 6
33 °FClear.3 mph88%30.46 "Hg10 mi
10:56 PM32 °FClear.7 mph88%30.46 "Hg10 mi
9:56 PM33 °FPassing clouds.No wind88%30.46 "Hg10 mi
8:56 PM33 °FClear.5 mph82%30.46 "Hg10 mi
7:56 PM41 °FPassing clouds.6 mph70%30.45 "Hg10 mi
6:56 PM41 °FClear.5 mph70%30.45 "Hg10 mi
5:56 PM46 °FMostly cloudy.7 mph66%30.42 "Hg10 mi
4:56 PM48 °FOvercast.5 mph59%30.40 "Hg10 mi
3:56 PM51 °FOvercast.7 mph52%30.38 "Hg10 mi
2:56 PM53 °FOvercast.No wind47%30.37 "Hg10 mi
1:56 PM50 °FPartly sunny.3 mph52%30.37 "Hg10 mi
12:56 PM49 °FSunny.6 mph57%30.40 "Hg10 mi
11:56 AM48 °FSunny.5 mph59%30.41 "Hg10 mi
10:56 AM47 °FSunny.7 mph59%30.41 "Hg10 mi
9:56 AM45 °FSunny.3 mph65%30.40 "Hg10 mi
8:56 AM39 °FSunny.No wind82%30.39 "Hg10 mi
7:56 AM33 °FSunny.No wind88%30.40 "Hg10 mi
6:56 AM31 °FClear.No wind89%30.38 "Hg10 mi
5:56 AM31 °FClear.7 mph92%30.36 "Hg10 mi
Weather by CustomWeather, © 2016

See weather overviewHow to use our weather pages